Location: Larkspur
(54.4391°N, 113.7691°W)
Time: 14:14:51
(UTC+00:00)

METEOR M2 - Pass Details

Date: 04 December 2023
Orbit: 819 x 826 km, 98.4° (Epoch: 02 March)

Event Time Altitude Azimuth Distance (km) Brightness Sun altitude
Rises 13:42:17 0° 16° (NNE) 3,376 ? -15.5°
Reaches altitude 10° 13:44:39 10° 17° (NNE) 2,438 ? -15.2°
Maximum altitude 13:50:04 82° 105° (ESE) 839 ? -14.5°
Drops below altitude 10° 13:55:26 10° 194° (SSW) 2,416 ? -13.7°
Sets 13:57:46 0° 195° (SSW) 3,343 ? -13.4°
